FW9893 Weather Reports


Display with metric or nautical units.
time (UTC)temp
F
wind
direction
speed
MPH
gust
MPH
rain 1hr
in
rain 24hr
in
rain mn
in
humidity
%
barometer
mb
20260507103047 44 163 1.0 6.0 0.00 0.00 0.00 79 1013.9
20260507101534 44 204 1.0 5.0 0.00 0.00 0.00 78 1014.0
20260507100045 44 251 1.0 5.0 0.00 0.00 0.00 78 1014.0
20260507094544 44 252 2.0 8.0 0.00 0.00 0.00 78 1014.1
20260507093040 45 292 1.0 7.0 0.00 0.00 0.00 77 1014.3
20260507091541 45 221 1.0 5.0 0.00 0.00 0.00 76 1014.4
20260507084556 46 211 2.0 5.0 0.00 0.00 0.00 74 1014.6
20260507083158 46 243 1.0 7.0 0.00 0.00 0.00 74 1014.9
20260507081553 46 261 2.0 8.0 0.00 0.00 0.00 73 1015.0
20260507080107 46 286 1.0 6.0 0.00 0.00 0.00 71 1015.2
20260507074559 46 254 2.0 8.0 0.00 0.00 0.00 70 1015.3
20260507073050 46 252 1.0 6.0 0.00 0.00 0.00 69 1015.5
20260507071709 45 198 0.0 5.0 0.00 0.00 0.00 67 1015.7
20260507070106 46 148 1.0 4.0 0.00 0.00 0.00 65 1015.8
20260507064634 46 240 1.0 4.0 0.00 0.00 0.00 62 1016.1
20260507063053 47 219 1.0 4.0 0.00 0.00 0.00 61 1016.0
20260507061611 47 289 0.0 3.0 0.00 0.00 0.00 59 1016.2
20260507060116 48 228 0.0 4.0 0.00 0.00 0.00 58 1016.4
20260507054617 48 273 1.0 6.0 0.00 0.00 0.00 56 1016.3
20260507053111 48 329 2.0 5.0 0.00 0.00 0.00 55 1016.3
20260507051612 48 217 1.0 4.0 0.00 0.00 0.00 55 1016.4
20260507050140 47 234 0.0 3.0 0.00 0.00 0.00 53 1016.5
20260507044620 46 323 1.0 3.0 0.00 0.00 0.00 52 1016.5
20260507043114 45 209 0.0 3.0 0.00 0.00 0.00 53 1016.7
20260507041559 44 251 0.0 0.0 0.00 0.00 0.00 54 1016.7
20260507040115 43 251 0.0 0.0 0.00 0.00 0.00 55 1016.7
20260507034612 42 251 0.0 0.0 0.00 0.00 0.00 57 1016.8
20260507033110 41 251 0.0 0.0 0.00 0.00 0.00 58 1016.9
20260507031603 41 251 0.0 1.0 0.00 0.00 0.00 58 1017.1
20260507030108 42 251 0.0 1.0 0.00 0.00 0.00 57 1017.0
20260507024640 43 251 0.0 2.0 0.00 0.00 0.00 54 1017.1
20260507023122 44 251 0.0 2.0 0.00 0.00 0.00 52 1016.8
20260507021622 46 251 0.0 1.0 0.00 0.00 0.00 49 1016.7
20260507020121 48 251 0.0 1.0 0.00 0.00 0.00 45 1016.7
20260507014527 50 251 0.0 2.0 0.00 0.00 0.00 43 1016.6
20260507013409 52 251 0.0 1.0 0.00 0.00 0.00 41 1016.6
20260507013158 52 251 0.0 1.0 0.00 0.00 0.00 41 1016.6
20260507011553 54 251 1.0 2.0 0.00 0.00 0.00 37 1016.5
20260507004607 58 251 0.0 6.0 0.00 0.00 0.00 32 1016.7
20260507003052 59 277 0.0 3.0 0.00 0.00 0.00 32 1016.8
20260507001556 61 235 0.0 5.0 0.00 0.00 0.00 29 1017.1
20260506234600 61 342 1.0 4.0 0.00 0.00 0.00 28 1017.2
20260506233059 61 283 1.0 4.0 0.00 0.00 0.00 29 1017.5
20260506231612 62 209 2.0 6.0 0.00 0.00 0.00 28 1017.3
20260506230110 62 360 3.0 8.0 0.00 0.00 0.00 28 1017.5
20260506224559 60 346 2.0 5.0 0.00 0.00 0.00 30 1017.5
20260506223110 61 314 2.0 9.0 0.00 0.00 0.00 28 1017.7
20260506221610 61 265 2.0 7.0 0.00 0.00 0.00 29 1017.8
20260506220134 62 317 1.0 9.0 0.00 0.00 0.00 26 1017.9
20260506214558 62 265 2.0 5.0 0.00 0.00 0.00 28 1017.8
20260506213106 61 246 3.0 8.0 0.00 0.00 0.00 28 1018.0
20260506211601 62 255 3.0 9.0 0.00 0.00 0.00 27 1018.3
20260506210510 60 261 3.0 9.0 0.00 0.00 0.00 29 1018.6
20260506204535 62 298 3.0 14.0 0.00 0.00 0.00 28 1018.6
20260506203031 62 309 2.0 9.0 0.00 0.00 0.00 29 1018.8
20260506201537 62 285 2.0 10.0 0.00 0.00 0.00 29 1019.0
20260506200032 59 217 2.0 5.0 0.00 0.00 0.00 32 1019.1
20260506194535 60 304 3.0 9.0 0.00 0.00 0.00 29 1019.3
20260506193035 59 310 3.0 9.0 0.00 0.00 0.00 30 1019.5
20260506191535 61 307 1.0 10.0 0.00 0.00 0.00 31 1019.4
20260506190032 60 339 3.0 12.0 0.00 0.00 0.00 29 1019.8
20260506184538 60 346 3.0 7.0 0.00 0.00 0.00 31 1019.4
20260506183131 59 109 3.0 9.0 0.00 0.00 0.00 30 1019.7
20260506181538 59 36 4.0 8.0 0.00 0.00 0.00 30 1019.9
20260506180038 59 348 3.0 16.0 0.00 0.00 0.00 34 1019.9
20260506174536 58 40 2.0 8.0 0.00 0.00 0.00 32 1020.1
20260506173041 58 296 2.0 10.0 0.00 0.00 0.00 32 1020.3
20260506171539 56 290 2.0 6.0 0.00 0.00 0.00 35 1020.3
20260506170038 57 240 3.0 9.0 0.00 0.00 0.00 34 1020.6
20260506164531 56 269 2.0 7.0 0.00 0.00 0.00 35 1020.7
20260506163036 57 223 2.0 9.0 0.00 0.00 0.00 34 1020.8
20260506161553 55 66 2.0 6.0 0.00 0.00 0.00 33 1020.8
20260506160045 54 328 3.0 6.0 0.00 0.00 0.00 36 1020.6
20260506154535 54 221 1.0 6.0 0.00 0.00 0.00 38 1020.7
20260506153035 54 282 2.0 6.0 0.00 0.00 0.00 40 1020.8
20260506151543 53 233 1.0 4.0 0.00 0.00 0.00 40 1020.8
20260506150032 52 134 1.0 5.0 0.00 0.00 0.00 42 1020.5
20260506144550 51 207 0.0 4.0 0.00 0.00 0.00 44 1020.7
20260506143036 50 39 2.0 7.0 0.00 0.00 0.00 46 1020.6
20260506141534 49 90 1.0 3.0 0.00 0.00 0.00 50 1020.5
20260506140040 48 275 0.0 4.0 0.00 0.00 0.00 54 1020.5
20260506134542 46 265 1.0 3.0 0.00 0.00 0.00 56 1020.4
20260506133036 44 297 0.0 3.0 0.00 0.00 0.00 60 1020.1
20260506131552 42 324 0.0 3.0 0.00 0.00 0.00 65 1020.2
20260506130041 40 265 1.0 3.0 0.00 0.00 0.00 69 1019.9
20260506124610 36 287 0.0 1.0 0.00 0.00 0.00 77 1020.0
20260506123051 34 287 0.0 0.0 0.00 0.00 0.00 78 1019.5
20260506121539 34 287 0.0 0.0 0.00 0.00 0.00 78 1019.4
20260506120053 33 290 0.0 1.0 0.00 0.00 0.00 77 1019.1
20260506114552 34 284 0.0 0.0 0.00 0.00 0.00 76 1019.0
20260506113142 34 296 0.0 0.0 0.00 0.00 0.00 75 1018.8
20260506111549 35 296 0.0 0.0 0.00 0.00 0.00 75 1018.7
20260506110051 35 296 0.0 0.0 0.00 0.00 0.00 74 1018.7
20260506104608 36 296 0.0 0.0 0.00 0.00 0.00 73 1018.8